EW4077 Weather Reports


Display with metric or nautical units.
time (UTC)temp
F
wind
direction
speed
MPH
gust
MPH
rain 1hr
in
rain 24hr
in
rain mn
in
humidity
%
barometer
mb
20260503213035 64 248 8.0 15.0 0.00 0.00 0.00 69 1013.8
20260503211533 63 259 9.0 16.0 0.00 0.00 0.00 69 1013.7
20260503210032 63 280 9.0 16.0 0.00 0.00 0.00 67 1013.7
20260503204531 64 265 8.0 14.0 0.00 0.00 0.00 67 1013.7
20260503203033 64 255 7.0 14.0 0.00 0.00 0.00 64 1013.8
20260503201533 67 229 6.0 10.0 0.00 0.00 0.00 56 1013.8
20260503200028 66 240 6.0 10.0 0.00 0.00 0.00 52 1013.9
20260503194525 66 209 6.0 12.0 0.00 0.00 0.00 56 1014.0
20260503193029 66 205 4.0 9.0 0.00 0.00 0.00 59 1014.2
20260503191521 65 243 5.0 11.0 0.00 0.00 0.00 62 1014.3
20260503190020 65 248 4.0 9.0 0.00 0.00 0.00 63 1014.4
20260503184516 63 228 8.0 12.0 0.00 0.00 0.00 65 1014.6
20260503183014 64 260 5.0 11.0 0.00 0.00 0.00 64 1014.7
20260503181510 63 186 7.0 13.0 0.00 0.00 0.00 68 1014.7
20260503180016 63 271 6.0 12.0 0.00 0.00 0.00 70 1014.7
20260503174505 62 222 6.0 11.0 0.00 0.00 0.00 71 1014.7
20260503173003 62 246 7.0 10.0 0.00 0.00 0.00 72 1014.7
20260503171502 62 246 6.0 10.0 0.00 0.00 0.00 71 1014.6
20260503081512 60 218 3.0 9.0 0.00 0.00 0.00 82 1013.5
20260503071507 60 219 2.0 6.0 0.00 0.00 0.00 84 1013.2
20260503060103 59 246 4.0 8.0 0.00 0.00 0.00 87 1012.8
20260503054604 59 267 6.0 10.0 0.00 0.00 0.00 87 1012.8
20260503053057 59 256 6.0 10.0 0.00 0.00 0.00 87 1012.8
20260503051558 59 263 6.0 11.0 0.00 0.00 0.00 87 1012.8
20260503050054 59 243 6.0 12.0 0.00 0.00 0.00 87 1012.8
20260503044559 59 240 7.0 12.0 0.00 0.00 0.00 88 1012.8
20260503043054 59 261 6.0 11.0 0.00 0.00 0.00 87 1012.5
20260503041552 59 252 5.0 11.0 0.00 0.00 0.00 87 1012.3
20260503040051 60 259 4.0 11.0 0.00 0.00 0.00 87 1012.0
20260503034551 59 240 8.0 14.0 0.00 0.00 0.00 87 1011.6
20260503033100 59 227 9.0 15.0 0.00 0.00 0.00 87 1011.5
20260503031554 60 240 7.0 15.0 0.00 0.00 0.00 87 1011.3
20260503030043 60 257 9.0 13.0 0.00 0.00 0.00 86 1011.0
20260503024551 60 252 6.0 13.0 0.00 0.00 0.00 85 1010.7
20260503023040 60 236 9.0 15.0 0.00 0.00 0.00 84 1010.4
20260503021540 61 259 10.0 16.0 0.00 0.00 0.00 84 1010.3
20260503020045 61 250 9.0 14.0 0.00 0.00 0.00 83 1010.3
20260503014542 62 236 8.0 14.0 0.00 0.00 0.00 82 1010.3
20260503013038 62 233 8.0 16.0 0.00 0.00 0.00 82 1010.4
20260503011541 62 217 12.0 17.0 0.00 0.00 0.00 81 1010.3
20260503010036 62 244 9.0 15.0 0.00 0.00 0.00 81 1010.4
20260503004536 62 240 8.0 15.0 0.00 0.00 0.00 80 1010.3
20260503003034 62 257 10.0 15.0 0.00 0.00 0.00 80 1010.3
20260503001538 62 214 8.0 15.0 0.00 0.00 0.00 80 1010.4
20260503000030 62 254 10.0 17.0 0.00 0.00 0.00 80 1010.6
20260502234528 62 222 10.0 19.0 0.00 0.00 0.00 79 1010.6
20260502233025 62 257 10.0 20.0 0.00 0.00 0.00 79 1010.7
20260502231523 62 215 11.0 20.0 0.00 0.00 0.00 78 1010.7
20260502230021 62 245 14.0 19.0 0.00 0.00 0.00 78 1010.9
20260502224516 62 219 12.0 19.0 0.00 0.00 0.00 78 1011.0
20260502223012 62 236 12.0 19.0 0.00 0.00 0.00 79 1011.4
20260502221508 62 234 14.0 20.0 0.00 0.00 0.00 78 1011.9
20260502220005 62 246 14.0 20.0 0.00 0.00 0.00 79 1012.2
20260502214501 62 250 10.0 20.0 0.00 0.00 0.00 81 1012.5